Probability
0 0 0 0 0 0 0 0 0 0 0 0 0 0 0 0 0 0 0 0 0 0 0 0 0 0 0 0 0 0 0 0 0 0 0 0 0 0 0 0 0 0 0
0 0 0 0 0 0 0 0 0 0 0 0 0 0 0 0 0 0 0 0 0 0 0 0 0 0 0 0 0 0 0 0 0 0 0 0 0 0 0 0 0 0 0
0 0 0 0 0 0 0 0 0 0 0 0 0 0 0 0 0 0 0 0 0 0 0 0 0 0 0 0 0 0 0 0 0 0 0 0 0 0 0 0 0 0 0
0 0 0 0 0 0 0 0 0 0 0 0 0 0 0 0 0 0 0 0 0 0 0 0 0 0 0 0 0 0 0 0 0 0 0 0 0 0 0 0 0 0 0
0 0 0 0 0 0 0 0 0 0 0 0 0 0 0 0 0 0 0 0 0 0 0 0 0 0 0 0 0 0 0 0 0 0 0 0 0 0 0 0 0 0 0
0 0 0 0 0 0 0 0 0 0 0 0 0 0 0 0 0 0 0 0 0 0 0 0 0 0 0 0 0 0 0 0 0 0 0 0 0 0 0 0 0 0 0
0 0 0 0 0 0 0 0 0 0 0 0 0 0 0 0 0 0 0 0 0 0 0 0 0 0 0 0 0 0 0 0 0 0 0 0 0 0 0 0 0 0 0
0 0 0 0 0 0 0 0 0 0 0 0 0 0 0 0 0 0 0 0 0 0 0 0 0 0 0 0 0 0 0 0 0 0 0 0 0 0 0 0 0 0 0
0 0 0 0 0 0 0 0 0 0 0 0 0 0 0 0 0 0 0 0 0 0 0 0 0 0 0 0 0 0 0 0 0 0 0 0 0 0 0 0 0 0 0
0 0 0 0 0 0 0 0 0 0 0 0 0 0 0 0 0 0 0 0 0 0 0 0 0 0 0 0 0 0 0 0 0 0 0 0 0 0 0 0 0 0 0
0 0 0 0 0 0 0 0 0 0 0 0 0 0 0 0 0 0 0 0 0 0 0 0 0 0 0 0 0 0 0 0 0 0 0 0 0 0 0 0 0 0 0
0 0 0 0 0 0 0 0 0 0 0 0 0 0 0 0 0 0 0 0 0 0 0 0 0 0 0 0 0 0 0 0 0 0 0 0 0 0 0 0 0 0 0
0 0 0 0 0 0 0 0 0 0 0 0 0 0 0 0 0 0 0 0 0 0 0 0 0 0 0 0 0 0 0 0 0 0 0 0 0 0 0 0 0 0 0
0 0 0 0 0 0 0 0 0 0 0 0 0 0 0 0 0 0 0 0 0 0 0 0 0 0 0 0 0 0 0 0 0 0 0 0 0 0 0 0 0 0 0
0 0 0 0 0 0 0 0 0 0 0 0 0 0 0 0 0 0 0 0 0 0 0 0 0 0 0 0 0 0 0 0 0 0 0 0 0 0 0 0 0 0 0
0 0 0 0 0 0 0 0 0 0 0 0 0 0 0 0 0 0 0 0 0 0 0 0 0 0 0 0 0 0 0 0 0 0 0 0 0 0 0 0 0 0 0
0 0 0 0 0 0 0 0 0 0 0 0 0 0 0 0 0 0 0 0 0 0 0 0 0 0 0 0 0 0 0 0 0 0 0 0 0 0 0 0 0 0 0
0 0 0 0 0 0 0 0 0 0 0 0 0 0 0 0 0 0 0 0 0 0 0 0 0 0 0 0 0 0 0 0 0 0 0 0 0 0 0 0 0 0 0
0 0 0 0 0 0 0 0 0 0 0 0 0 0 0 0 0 0 0 0 0 0 0 0 0 0 0 0 0 0 0 0 0 0 0 0 0 0 0 0 0 0 0
0 0 0 0 0 0 0 0 0 0 0 0 0 0 0 0 0 0 0 0 0 0 0 0 0 0 0 0 0 0 0 0 0 0 0 0 0 0 0 0 0 0 0
0 0 0 0 0 0 0 0 0 0 0 0 0 0 0 0 0 0 0 0 0 0 0 0 0 0 0 0 0 0 0 0 0 0 0 0 0 0 0 0 0 0 0
0 0 0 0 0 0 0 0 0 0 0 0 0 0 0 0 0 0 0 0 0 0 0 0 0 0 0 0 0 0 0 0 0 0 0 0 0 0 0 0 0 0 0
0 0 0 0 0 0 0 0 0 0 0 0 0 0 0 0 0 0 0 0 0 0 0 0 0 0 0 0 0 0 0 0 0 0 0 0 0 0 0 0 0 0 0
0 0 0 0 0 0 0 0 0 0 0 0 0 0 0 0 0 0 0 0 0 0 0 0 0 0 0 0 0 0 0 0 0 0 0 0 0 0 0 0 0 0 0
0 0 0 0 0 0 0 0 0 0 0 0 0 0 0 0 0 0 0 0 0 0 0 0 0 0 0 0 0 0 0 0 0 0 0 0 0 0 0 0 0 0 0
0 0 0 0 0 0 0 0 0 0 0 0 0 0 0 0 0 0 0 0 0 0 0 0 0 0 0 0 0 0 0 0 0 0 0 0 0 0 0 0 0 0 0
Height
5723 5725 5727 5728 5729 5731 5732 5733 5734 5735 5735 5735 5736 5736 5736 5736 5736 5736 5735 5735 5734 5733 5732 5730 5729 5727 5725 5723 5721 5718 5716 5714 5712 5709 5706 5704 5701 5699 5696 5694 5691 5688 5685
5713 5714 5716 5717 5718 5719 5720 5721 5722 5722 5723 5723 5724 5724 5724 5724 5724 5724 5723 5723 5722 5721 5720 5719 5717 5716 5714 5712 5710 5708 5706 5704 5702 5700 5697 5695 5693 5690 5688 5685 5683 5680 5677
5703 5704 5705 5706 5707 5708 5709 5709 5710 5710 5711 5711 5711 5712 5712 5712 5712 5711 5711 5711 5710 5709 5708 5707 5706 5704 5702 5701 5699 5697 5696 5694 5692 5690 5688 5686 5684 5682 5680 5677 5675 5672 5670
5693 5694 5695 5696 5696 5697 5698 5698 5698 5699 5699 5699 5699 5699 5699 5699 5699 5699 5699 5699 5698 5697 5696 5695 5694 5693 5692 5690 5689 5687 5686 5685 5683 5682 5680 5678 5676 5674 5671 5669 5667 5664 5662
5683 5684 5685 5685 5686 5686 5687 5687 5687 5687 5687 5688 5688 5688 5688 5688 5688 5688 5687 5687 5687 5686 5685 5684 5683 5682 5681 5680 5679 5678 5677 5676 5674 5673 5671 5669 5667 5665 5663 5661 5658 5656 5653
5673 5674 5675 5675 5676 5676 5676 5676 5676 5676 5676 5676 5676 5676 5676 5676 5676 5676 5676 5676 5675 5675 5674 5673 5673 5672 5671 5671 5670 5669 5668 5667 5666 5664 5663 5661 5659 5656 5654 5652 5650 5647 5645
5664 5664 5665 5665 5666 5666 5666 5666 5665 5665 5665 5665 5665 5665 5665 5665 5665 5665 5665 5665 5664 5664 5664 5663 5663 5663 5662 5662 5661 5660 5659 5658 5657 5656 5654 5652 5650 5648 5646 5643 5641 5638 5636
5654 5654 5655 5655 5655 5655 5655 5655 5655 5655 5655 5654 5654 5654 5654 5654 5654 5654 5654 5654 5654 5654 5654 5654 5654 5653 5653 5653 5652 5651 5651 5649 5648 5647 5645 5643 5641 5639 5636 5634 5631 5629 5626
5644 5645 5645 5645 5645 5645 5645 5645 5645 5645 5644 5644 5644 5644 5644 5644 5644 5644 5644 5644 5644 5645 5645 5645 5645 5645 5645 5644 5644 5643 5642 5640 5639 5637 5635 5633 5631 5629 5627 5624 5622 5619 5616
5634 5635 5635 5636 5636 5636 5635 5635 5635 5635 5634 5634 5634 5634 5634 5635 5635 5635 5635 5635 5636 5636 5636 5636 5636 5636 5636 5636 5635 5634 5633 5631 5630 5628 5626 5624 5621 5619 5616 5614 5611 5608 5605
5625 5625 5626 5626 5626 5626 5626 5626 5625 5625 5625 5625 5625 5625 5626 5626 5626 5626 5627 5627 5627 5628 5628 5628 5628 5628 5627 5627 5626 5625 5623 5622 5620 5618 5616 5613 5611 5608 5605 5603 5600 5597 5594
5615 5616 5616 5616 5617 5617 5617 5617 5617 5617 5617 5617 5617 5617 5617 5618 5618 5618 5619 5619 5619 5619 5620 5620 5619 5619 5618 5618 5616 5615 5614 5612 5610 5608 5605 5603 5600 5597 5594 5591 5588 5585 5582
5606 5607 5607 5607 5608 5608 5608 5608 5609 5609 5609 5609 5609 5609 5610 5610 5610 5610 5611 5611 5611 5611 5611 5611 5611 5610 5609 5608 5607 5605 5604 5602 5599 5597 5595 5592 5589 5586 5583 5579 5576 5573 5569
5598 5598 5598 5599 5599 5600 5600 5601 5601 5601 5601 5601 5601 5602 5602 5602 5603 5603 5603 5603 5603 5603 5603 5602 5602 5601 5600 5598 5597 5595 5593 5591 5588 5586 5583 5580 5577 5574 5571 5567 5564 5560 5556
5589 5590 5590 5591 5591 5592 5592 5593 5593 5593 5594 5594 5594 5595 5595 5595 5595 5596 5595 5595 5595 5595 5594 5593 5592 5591 5590 5588 5586 5584 5582 5580 5577 5574 5571 5568 5565 5562 5558 5555 5552 5548 5544
5581 5581 5582 5582 5583 5584 5584 5585 5585 5586 5586 5587 5587 5587 5587 5588 5587 5588 5587 5587 5587 5586 5585 5584 5583 5581 5580 5578 5576 5573 5571 5568 5566 5563 5559 5556 5553 5549 5546 5542 5539 5535 5531
5572 5573 5574 5574 5575 5576 5577 5577 5578 5578 5579 5579 5579 5579 5579 5579 5579 5579 5579 5578 5578 5577 5575 5574 5573 5571 5569 5567 5565 5562 5560 5557 5554 5551 5547 5544 5541 5537 5533 5529 5526 5522 5517
5563 5564 5565 5566 5567 5568 5568 5569 5570 5570 5571 5571 5571 5571 5571 5571 5570 5570 5570 5569 5568 5567 5565 5564 5562 5560 5558 5556 5553 5551 5548 5545 5542 5539 5535 5532 5528 5524 5520 5517 5512 5508 5504
5553 5555 5556 5557 5558 5559 5560 5560 5561 5562 5562 5562 5562 5562 5562 5561 5561 5560 5560 5559 5558 5556 5555 5553 5551 5549 5547 5544 5542 5539 5536 5533 5530 5526 5523 5519 5516 5512 5508 5504 5499 5494 5490
5544 5545 5546 5548 5549 5550 5551 5551 5552 5552 5553 5553 5553 5552 5552 5552 5551 5550 5549 5548 5547 5545 5544 5542 5540 5537 5535 5532 5529 5526 5524 5520 5517 5514 5511 5507 5503 5499 5495 5490 5485 5481 5475
5533 5535 5536 5538 5539 5540 5541 5542 5542 5542 5543 5543 5543 5542 5542 5542 5541 5540 5539 5537 5536 5534 5533 5531 5528 5526 5523 5520 5517 5514 5512 5508 5505 5502 5498 5494 5490 5486 5481 5477 5472 5466 5461
5523 5524 5526 5527 5529 5530 5531 5531 5532 5532 5532 5533 5532 5532 5532 5531 5531 5530 5528 5527 5525 5523 5521 5519 5517 5514 5511 5509 5506 5503 5500 5496 5493 5490 5486 5482 5477 5473 5468 5463 5458 5452 5447
5512 5513 5515 5517 5518 5519 5520 5521 5521 5522 5522 5522 5522 5522 5521 5521 5520 5519 5517 5516 5514 5512 5510 5508 5505 5503 5500 5497 5494 5491 5488 5485 5481 5478 5473 5469 5464 5459 5454 5449 5443 5438 5432
5500 5502 5504 5506 5507 5509 5510 5511 5511 5512 5512 5512 5512 5512 5511 5510 5509 5508 5507 5505 5503 5501 5499 5496 5494 5491 5488 5486 5483 5480 5476 5473 5469 5465 5461 5456 5451 5446 5440 5435 5429 5423 5417
5488 5491 5493 5495 5497 5498 5499 5500 5501 5502 5502 5502 5502 5501 5501 5500 5499 5498 5496 5495 5493 5490 5488 5485 5483 5480 5477 5474 5471 5468 5465 5461 5457 5452 5448 5443 5437 5432 5426 5420 5414 5408 5402
5478 5480 5482 5484 5486 5488 5489 5490 5491 5492 5492 5492 5492 5491 5491 5490 5489 5487 5486 5484 5482 5480 5477 5475 5472 5469 5467 5463 5460 5457 5453 5449 5444 5440 5435 5430 5424 5418 5412 5406 5400 5393 5387
Wind_Speed
47 48 49 50 51 52 52 52 52 52 52 51 51 51 51 51 50 50 49 49 48 48 48 47 46 46 45 45 45 44 42 41 39 38 37 35 34 34 33 32 32 31 31
42 43 45 46 48 49 49 50 51 52 52 51 51 51 51 51 51 50 50 49 48 48 47 47 46 45 45 44 43 41 40 38 37 35 34 33 33 32 31 31 31 30 30
38 40 41 43 44 46 47 48 48 49 49 49 50 50 50 49 49 48 48 47 47 46 45 45 45 44 43 42 40 38 37 36 34 33 32 32 31 31 31 30 30 29 29
37 38 40 41 42 43 45 46 47 47 47 47 48 48 47 46 46 46 45 45 45 44 44 43 43 42 41 39 37 35 34 33 32 31 31 30 30 30 30 29 29 29 29
36 37 38 39 40 41 42 43 44 44 45 45 45 45 45 45 45 45 44 44 44 43 42 41 40 39 38 36 34 33 32 31 31 30 30 30 30 30 30 29 29 30 30
36 36 37 38 39 39 40 41 41 42 42 43 43 43 43 43 43 43 43 42 42 41 39 38 37 36 35 34 33 31 30 30 29 29 29 30 30 30 29 30 30 31 31
35 35 36 37 38 38 39 39 40 40 40 40 41 41 41 41 41 41 40 39 38 37 36 35 35 34 32 31 30 30 30 29 29 29 30 30 30 30 30 31 32 32 33
34 35 36 36 37 37 38 38 38 38 38 38 38 39 39 38 38 37 36 36 35 34 33 32 32 31 30 29 29 30 30 29 30 30 30 30 31 31 32 33 33 34 34
34 35 35 36 36 37 37 37 37 37 37 36 36 36 36 36 36 35 34 32 32 31 31 30 29 29 29 30 30 30 30 30 31 31 31 32 33 33 34 35 35 36 36
34 34 35 35 35 35 35 35 35 35 34 34 33 33 33 33 32 32 31 30 29 29 29 29 29 29 30 30 30 30 31 31 32 32 33 33 34 35 36 37 37 38 38
33 33 33 33 33 33 33 33 32 32 31 30 30 30 30 29 29 29 29 29 28 28 28 29 29 29 30 30 30 31 31 32 33 33 34 35 36 37 38 38 39 39 39
31 31 32 32 32 32 31 30 30 29 28 28 28 27 27 28 28 28 28 28 28 28 28 29 29 29 30 31 31 32 32 33 34 35 36 37 38 38 39 40 40 40 41
30 30 31 31 30 29 28 28 27 27 27 27 27 27 27 27 27 27 27 27 27 28 28 29 29 30 31 32 32 33 34 35 36 37 38 39 39 40 40 40 41 42 43
29 29 29 28 28 27 27 26 26 26 26 25 25 26 26 26 26 26 26 27 27 28 28 29 30 32 32 33 34 35 36 37 37 38 39 40 41 41 41 42 42 43 44
28 28 28 28 27 27 27 26 24 24 24 24 24 25 25 25 25 26 26 27 27 28 29 31 32 33 34 35 36 37 37 38 39 40 40 41 41 42 42 43 43 43 44
28 28 27 27 26 26 26 25 25 24 24 24 24 25 25 25 26 27 28 29 30 31 32 33 34 35 36 36 37 38 39 39 40 41 41 42 42 42 42 43 43 43 44
29 28 27 27 27 26 26 26 26 25 25 25 26 26 27 27 28 28 29 30 31 32 33 34 35 36 36 37 38 38 39 40 41 41 42 42 42 42 43 43 43 44 45
29 29 28 27 26 26 26 27 27 27 27 28 28 29 30 30 30 31 31 32 33 34 34 35 36 36 37 38 39 39 40 41 41 41 41 41 42 42 43 43 44 45 46
30 30 30 29 29 28 28 28 28 28 29 29 30 30 31 31 32 33 33 34 34 35 35 36 36 37 38 39 40 40 41 41 41 41 41 42 42 42 43 44 45 46 46
31 31 30 30 30 29 29 29 30 30 30 30 31 32 32 32 33 34 35 35 35 36 36 37 38 38 39 39 40 40 40 40 40 41 41 42 42 43 44 45 46 47 47
32 32 32 31 31 31 31 31 31 31 31 32 32 32 33 33 33 34 34 35 35 36 36 37 37 38 39 39 40 39 39 40 40 41 41 42 43 44 45 46 47 48 48
33 32 32 33 33 33 32 32 32 32 32 32 32 33 33 33 33 33 33 34 35 36 36 37 38 38 39 38 38 38 39 39 40 40 41 43 44 45 46 47 48 49 49
33 33 33 33 32 32 32 31 31 31 30 30 31 32 32 32 32 32 33 34 34 35 36 36 37 37 37 36 37 37 38 39 40 41 43 44 45 46 47 48 49 50 50
34 34 33 32 32 31 31 30 30 30 30 30 30 30 31 31 31 32 32 33 33 34 34 35 35 35 35 36 37 37 38 40 41 43 44 45 46 47 48 49 50 51 51
33 33 33 32 31 31 30 30 30 30 30 30 30 30 30 31 31 32 32 33 33 33 34 34 34 35 35 36 37 38 39 41 42 43 45 46 47 49 49 50 51 51 52
31 31 31 31 30 30 30 30 30 30 30 30 30 31 31 31 32 32 32 33 33 33 34 34 34 34 35 36 37 39 41 42 44 45 46 48 49 49 50 51 51 51 52
Wind_Direction
257 258 259 260 261 262 263 264 265 266 267 268 269 270 271 272 273 275 277 278 280 282 283 284 285 286 287 288 288 289 289 290 291 292 293 294 295 297 297 299 300 300 300
258 259 260 261 262 264 265 265 265 266 267 268 270 271 272 273 274 275 277 278 280 281 282 283 283 284 285 286 287 287 287 288 289 291 292 293 294 295 297 298 299 299 299
260 261 262 262 263 264 265 265 266 267 268 269 270 271 272 273 274 276 277 278 279 280 280 281 281 282 283 284 284 285 286 287 288 289 290 292 293 294 296 297 298 298 298
260 262 263 264 264 265 266 267 268 269 269 270 271 271 272 273 273 275 276 276 277 278 278 279 280 281 282 281 282 283 284 285 286 288 289 290 292 294 295 296 297 298 298
262 263 264 265 267 268 268 269 269 270 271 271 271 271 271 272 272 273 274 274 275 276 278 278 279 279 279 280 281 281 282 283 285 286 288 290 291 293 294 296 297 298 297
262 264 265 265 266 268 269 269 270 271 271 271 271 271 271 271 272 272 273 274 275 275 276 276 276 276 277 278 279 279 281 282 284 286 287 289 291 293 295 296 297 297 297
263 264 265 266 267 268 269 270 270 271 272 272 271 271 271 271 271 272 272 273 274 274 274 274 275 275 276 276 277 279 281 282 283 285 287 290 291 293 294 295 296 296 296
264 264 265 267 268 269 270 271 271 272 272 272 271 271 271 271 271 270 270 271 272 272 273 273 273 273 274 275 276 279 280 282 283 285 288 290 291 293 294 295 295 296 295
264 264 265 267 269 270 271 272 272 272 272 272 272 271 270 269 269 270 270 270 270 271 270 271 271 272 273 274 276 279 281 283 284 286 288 290 291 293 294 294 294 295 295
264 265 267 268 270 271 272 272 272 272 272 271 271 271 270 269 269 268 268 268 269 269 269 269 271 272 274 276 278 280 282 284 285 287 289 290 292 293 293 294 294 294 294
265 266 267 267 269 270 271 272 271 271 270 270 270 270 270 269 269 269 268 267 267 268 269 270 271 273 275 277 279 282 284 285 286 288 289 291 293 293 294 294 294 294 294
265 265 266 267 269 270 271 271 270 270 270 269 270 270 270 269 269 269 269 268 268 269 269 270 273 275 277 279 281 283 285 286 287 288 290 291 293 294 294 294 294 295 294
265 266 266 267 267 268 269 269 268 269 270 270 269 269 269 269 269 269 269 270 270 271 272 273 275 277 279 281 283 285 286 287 288 289 291 292 293 293 294 294 294 295 295
265 265 265 264 264 266 266 267 268 268 269 270 270 270 270 269 270 270 271 272 273 274 275 276 278 280 281 283 285 286 287 289 290 291 292 293 294 294 294 295 295 296 296
264 265 263 263 262 264 264 266 267 267 268 270 271 270 270 270 271 272 273 274 275 277 279 280 281 282 284 285 287 288 289 290 292 293 293 294 294 294 295 296 296 296 297
262 263 262 261 261 263 264 265 265 266 267 267 268 269 270 272 274 275 276 277 279 280 281 282 283 285 286 287 288 289 290 291 292 293 294 295 295 295 296 296 296 297 297
259 260 262 260 260 262 263 264 264 265 267 268 268 270 272 273 275 276 278 280 281 282 283 284 285 286 287 288 289 290 291 292 293 294 295 295 296 296 296 297 297 298 298
257 258 258 258 260 262 264 264 264 265 267 269 270 272 273 274 276 277 279 281 282 283 284 285 286 287 288 289 290 291 291 292 294 295 295 295 296 296 297 297 298 299 299
256 257 257 257 259 261 264 264 265 265 267 268 271 273 274 275 276 278 280 281 282 283 284 286 287 288 289 290 291 291 292 293 294 295 295 296 296 297 298 299 299 300 300
255 255 256 257 259 261 263 264 265 266 267 269 271 272 274 275 277 279 280 281 283 284 285 287 288 289 290 291 291 292 292 293 293 294 295 296 296 297 298 299 300 301 301
255 255 256 257 259 261 263 265 265 267 268 269 270 272 274 276 278 280 281 282 283 284 285 287 288 290 291 291 292 292 292 293 294 294 295 296 297 298 299 300 301 301 301
255 256 257 259 260 262 263 265 266 267 268 269 270 272 274 276 278 280 281 283 284 285 286 287 288 290 291 291 292 292 293 294 294 295 296 297 298 299 300 301 301 302 302
255 256 257 258 260 261 263 264 265 266 268 269 271 273 274 276 278 281 282 284 285 286 287 288 289 290 290 291 291 292 293 294 296 297 298 299 299 299 300 301 302 302 303
254 254 255 257 258 260 261 263 264 266 268 270 273 274 275 277 280 282 284 286 287 288 288 289 290 290 290 290 292 293 294 295 297 298 299 300 301 301 301 302 303 303 303
252 252 253 254 257 259 261 263 264 266 268 271 273 275 277 279 281 283 285 286 288 288 289 289 290 290 290 292 293 294 296 297 298 300 301 302 302 302 302 303 303 304 304
250 251 251 253 256 259 261 263 264 266 269 271 273 276 278 280 282 283 285 287 288 289 289 290 291 291 292 294 295 296 297 298 300 301 302 303 303 303 303 304 304 304 305